Weslaco, TX

8:23 PM CDT on June 24, 2017 (GMT -0500)
Weslaco

Weather History for KT65 - January, 2013

Change the Weather History Date:

Tuesday, January 15, 2013

  Actual Average (KMFE) Record (KMFE)
Temperature  
Mean Temperature 46 °F -  
Max Temperature 47 °F 70 °F 88 °F (1950)
Min Temperature 45 °F 49 °F 32 °F (1979)
Degree Days  
Heating Degree Days 19    
Moisture  
Dew Point 42 °F    
Average Humidity 87    
Maximum Humidity 92    
Minimum Humidity 74    
Precipitation  
Precipitation 0.01 in - - ()
Sea Level Pressure  
Sea Level Pressure 30.09 in    
Wind  
Wind Speed 8 mph (North)    
Max Wind Speed 13 mph    
Max Gust Speed 18 mph    
Visibility 8 miles    
Events      
Averages and records for this station are not official NWS values.
T = Trace of Precipitation, MM = Missing Value Source: NWS Daily Summary

Daily Weather History Graph

Daily Weather History Graph

Search for Another Location

Airport or City:

Trip Planner

Search our weather history database for the weather conditions in past years. The results will help you decide how hot, cold, wet, or windy it might be!

Date:

Astronomy

Jan. 15, 2013 Rise Set
Actual Time 7:20 AM CST 6:02 PM CST
Civil Twilight 6:56 AM CST 6:27 PM CST
Nautical Twilight 6:27 AM CST 6:55 PM CST
Astronomical Twilight 5:59 AM CST 7:23 PM CST
Moon 9:56 AM CST (1/15) 10:20 PM CST (1/15)
Length of Visible Light 11h 30m
Length of Day
10h 41m
Waxing Crescent, 19% of the Moon is Illuminated
Jan 15
Waxing Crescent
Jan 18
First Quarter
Jan 26
Full
Feb 3
Last Quarter
Feb 10
New

Hourly Weather History & Observations

Time (CST) Temp. Windchill Dew Point Humidity Pressure Visibility Wind Dir Wind Speed Gust Speed Precip Events Conditions
12:15 AM 45.9 °F 43.6 °F 43.7 °F 92% 30.05 in 3.0 mi North 4.6 mph - N/A   Overcast
12:35 AM 45.9 °F 42.9 °F 43.7 °F 92% 30.05 in 3.0 mi NNW 5.8 mph - N/A   Overcast
12:55 AM 45.9 °F 42.9 °F 43.7 °F 92% 30.04 in 3.0 mi North 5.8 mph - N/A   Overcast
1:15 AM 46.0 °F 43.1 °F 43.9 °F 92% 30.04 in 4.0 mi North 5.8 mph - N/A   Overcast
1:35 AM 45.9 °F 42.3 °F 43.7 °F 92% 30.05 in 4.0 mi NNW 6.9 mph - N/A   Overcast
1:55 AM 46.2 °F 43.3 °F 43.9 °F 92% 30.04 in 4.0 mi NNW 5.8 mph - N/A   Overcast
2:15 AM 46.0 °F 41.9 °F 43.9 °F 92% 30.04 in 3.0 mi NNW 8.1 mph - N/A   Light Drizzle
2:35 AM 46.0 °F 41.4 °F 43.9 °F 92% 30.03 in 4.0 mi NNW 9.2 mph - N/A   Overcast
2:55 AM 45.9 °F 42.3 °F 43.7 °F 92% 30.03 in 5.0 mi NNW 6.9 mph - N/A   Overcast
3:15 AM 46.0 °F 41.4 °F 43.9 °F 92% 30.03 in 5.0 mi NNW 9.2 mph - N/A   Overcast
3:35 AM 46.0 °F 43.1 °F 43.9 °F 92% 30.03 in 5.0 mi NNW 5.8 mph - N/A   Overcast
3:55 AM 45.9 °F 42.3 °F 43.7 °F 92% 30.03 in 5.0 mi North 6.9 mph - N/A   Overcast
4:15 AM 46.0 °F 41.9 °F 43.9 °F 92% 30.02 in 4.0 mi North 8.1 mph - N/A   Overcast
4:55 AM 45.9 °F 40.8 °F 43.7 °F 92% 30.02 in 7.0 mi North 10.4 mph - N/A   Overcast
5:15 AM 46.0 °F 42.5 °F 43.7 °F 92% 30.02 in 7.0 mi North 6.9 mph - N/A   Overcast
5:35 AM 45.9 °F 42.3 °F 43.7 °F 92% 30.03 in 3.0 mi North 6.9 mph - N/A   Overcast
5:55 AM 46.0 °F 43.1 °F 43.9 °F 92% 30.03 in 3.0 mi North 5.8 mph - 0.01 in   Overcast
6:15 AM 45.9 °F 41.2 °F 43.7 °F 92% 30.03 in 5.0 mi North 9.2 mph - N/A   Overcast
6:35 AM 46.0 °F 42.5 °F 43.9 °F 92% 30.04 in 7.0 mi North 6.9 mph - N/A   Overcast
6:55 AM 46.2 °F 42.7 °F 43.7 °F 91% 30.04 in 10.0 mi North 6.9 mph - N/A   Overcast
7:15 AM 46.0 °F 41.9 °F 43.7 °F 92% 30.05 in 10.0 mi North 8.1 mph - N/A   Overcast
7:35 AM 46.4 °F 42.9 °F 43.9 °F 91% 30.06 in 10.0 mi North 6.9 mph - N/A   Overcast
7:55 AM 46.4 °F 43.5 °F 43.9 °F 91% 30.07 in 10.0 mi NNE 5.8 mph - N/A   Overcast
8:15 AM 46.6 °F - 44.1 °F 91% 30.06 in 10.0 mi NNE 8.1 mph - N/A   Overcast
8:35 AM 46.4 °F 43.5 °F 43.9 °F 91% 30.07 in 10.0 mi North 5.8 mph - N/A   Overcast
8:55 AM 46.4 °F 43.5 °F 43.7 °F 90% 30.08 in 7.0 mi North 5.8 mph - N/A   Overcast
9:15 AM 46.6 °F - 43.9 °F 90% 30.07 in 7.0 mi North 6.9 mph - N/A   Overcast
9:35 AM 46.6 °F - 43.9 °F 90% 30.08 in 7.0 mi North 10.4 mph - N/A   Overcast
9:55 AM 46.8 °F - 43.9 °F 90% 30.10 in 10.0 mi North 9.2 mph - N/A   Overcast
10:15 AM 46.8 °F - 43.7 °F 89% 30.11 in 10.0 mi North 10.4 mph - N/A   Overcast
10:35 AM 46.6 °F - 43.7 °F 90% 30.10 in 7.0 mi North 10.4 mph - N/A   Overcast
10:55 AM 47.1 °F - 43.7 °F 88% 30.10 in 10.0 mi NNW 10.4 mph - N/A   Overcast
11:15 AM 46.8 °F - 43.3 °F 88% 30.10 in 10.0 mi North 10.4 mph - N/A   Overcast
11:35 AM 46.8 °F - 43.7 °F 89% 30.09 in 7.0 mi North 9.2 mph - N/A   Overcast
11:55 AM 46.4 °F 41.5 °F 43.7 °F 90% 30.09 in 2.0 mi North 10.4 mph - N/A   Drizzle
12:15 PM 46.4 °F 41.9 °F 43.7 °F 90% 30.08 in 5.0 mi North 9.2 mph - N/A   Light Drizzle
12:35 PM 46.4 °F 41.5 °F 43.5 °F 90% 30.07 in 7.0 mi North 10.4 mph 16.1 mph N/A   Overcast
12:55 PM 46.8 °F - 43.5 °F 88% 30.06 in 10.0 mi North 10.4 mph - N/A   Overcast
1:15 PM 46.8 °F - 43.3 °F 88% 30.06 in 10.0 mi North 8.1 mph - N/A   Overcast
1:35 PM 46.6 °F - 43.0 °F 87% 30.05 in 10.0 mi North 11.5 mph - N/A   Overcast
1:55 PM 46.6 °F - 43.0 °F 87% 30.05 in 10.0 mi North 10.4 mph 16.1 mph N/A   Overcast
2:15 PM 46.6 °F - 42.6 °F 86% 30.05 in 10.0 mi NNW 12.7 mph - N/A   Overcast
2:35 PM 46.0 °F 41.0 °F 42.6 °F 88% 30.05 in 7.0 mi North 10.4 mph - N/A   Overcast
2:55 PM 45.9 °F 40.0 °F 42.8 °F 89% 30.06 in 7.0 mi NNW 12.7 mph - N/A   Overcast
3:15 PM 45.5 °F 40.8 °F 42.3 °F 88% 30.06 in 4.0 mi North 9.2 mph - N/A   Overcast
3:35 PM 45.7 °F 40.2 °F 41.2 °F 84% 30.07 in 10.0 mi North 11.5 mph 16.1 mph N/A   Overcast
3:55 PM 45.5 °F 41.3 °F 41.5 °F 86% 30.08 in 5.0 mi North 8.1 mph - N/A   Overcast
4:15 PM 45.3 °F 41.1 °F 41.9 °F 88% 30.09 in 4.0 mi North 8.1 mph - N/A   Overcast
4:35 PM 45.1 °F 40.3 °F 41.9 °F 88% 30.10 in 4.0 mi North 9.2 mph - N/A   Overcast
4:55 PM 45.5 °F 41.3 °F 41.9 °F 87% 30.11 in 7.0 mi North 8.1 mph - N/A   Overcast
5:15 PM 45.7 °F 40.2 °F 40.6 °F 83% 30.12 in 10.0 mi North 11.5 mph 18.4 mph N/A   Overcast
5:35 PM 45.7 °F 41.0 °F 41.0 °F 84% 30.12 in 10.0 mi North 9.2 mph - N/A   Overcast
5:55 PM 45.9 °F 41.2 °F 40.6 °F 82% 30.12 in 10.0 mi North 9.2 mph - N/A   Overcast
6:15 PM 46.0 °F 42.5 °F 40.3 °F 80% 30.13 in 10.0 mi North 6.9 mph - N/A   Overcast
6:35 PM 46.0 °F 42.5 °F 40.1 °F 80% 30.13 in 10.0 mi North 6.9 mph - N/A   Overcast
6:55 PM 46.0 °F 43.9 °F 40.1 °F 80% 30.14 in 10.0 mi North 4.6 mph - N/A   Overcast
7:15 PM 45.9 °F 42.3 °F 39.9 °F 80% 30.15 in 10.0 mi North 6.9 mph - N/A   Overcast
7:35 PM 45.9 °F 41.7 °F 39.7 °F 79% 30.16 in 10.0 mi North 8.1 mph - N/A   Overcast
7:55 PM 45.9 °F 42.3 °F 39.7 °F 79% 30.16 in 10.0 mi North 6.9 mph - N/A   Overcast
8:15 PM 45.7 °F 42.7 °F 39.6 °F 79% 30.18 in 10.0 mi North 5.8 mph - N/A   Overcast
8:35 PM 45.7 °F 42.0 °F 39.2 °F 78% 30.18 in 10.0 mi North 6.9 mph - N/A   Overcast
8:55 PM 45.7 °F 42.7 °F 39.0 °F 78% 30.18 in 10.0 mi North 5.8 mph - N/A   Overcast
9:15 PM 45.5 °F 41.8 °F 39.2 °F 79% 30.18 in 10.0 mi North 6.9 mph - N/A   Overcast
9:35 PM 45.5 °F 41.3 °F 38.8 °F 78% 30.19 in 10.0 mi North 8.1 mph - N/A   Overcast
9:55 PM 45.5 °F 40.3 °F 38.5 °F 76% 30.20 in 10.0 mi North 10.4 mph - N/A   Overcast
10:15 PM 45.3 °F 40.1 °F 38.1 °F 76% 30.20 in 10.0 mi North 10.4 mph - N/A   Overcast
10:35 PM 45.3 °F 39.7 °F 38.3 °F 76% 30.22 in 10.0 mi North 11.5 mph - N/A   Overcast
10:55 PM 45.1 °F 39.9 °F 38.3 °F 77% 30.22 in 10.0 mi North 10.4 mph 18.4 mph N/A   Overcast
11:15 PM 45.1 °F 39.5 °F 37.8 °F 75% 30.23 in 10.0 mi NNW 11.5 mph 16.1 mph N/A   Overcast
11:35 PM 45.1 °F 39.9 °F 37.4 °F 74% 30.24 in 10.0 mi NNW 10.4 mph - N/A   Overcast